Location: Chesterfield Elementary School
(38.6545°N, 90.6360°W)
Time: 05:55:46
(UTC+00:00)

Daily predictions for brighter satellites

Satellite Brightness Start Highest point End
(mag) Time Altitude Azimuth Time Altitude Azimuth Time Altitude Azimuth
NOSS 2-3 (E) 3.3 00:00:43 10° SW 00:04:27 70° NW 00:06:40 22° NNE
NOSS 2-3 (D) 3.2 00:02:28 10° SW 00:06:14 74° NW 00:08:20 24° NNE
Resurs 1-3 4.0 00:02:52 10° SE 00:06:49 37° ENE 00:10:46 10° N
COSMO-SKYMED 1 2.6 00:04:34 22° NE 00:06:56 47° E 00:10:53 10° S
Cosmos 783 Rocket 4.5 00:02:35 10° NNW 00:07:54 87° ENE 00:13:11 10° SSE
Cosmos 2263 Rocket 2.8 00:03:04 10° N 00:08:08 32° ENE 00:10:29 24° E
Cosmos 1900 4.2 00:07:17 10° NNW 00:12:18 71° ENE 00:17:12 10° SE
COSMOS 2455 4.2 00:09:38 10° SSE 00:13:09 19° ESE 00:13:09 19° ESE
Cosmos 1538 Rocket 4.5 00:11:19 10° N 00:16:14 37° ENE 00:18:32 25° ESE
Cosmos 1553 Rocket 4.3 00:11:22 10° SSE 00:17:01 40° E 00:21:02 19° NNE
Cosmos 2227 Rocket 2.1 00:15:52 10° NNW 00:21:32 73° ENE 00:27:09 10° SSE
Cosmos 1726 Rocket 4.1 00:17:09 10° SSW 00:21:45 62° W 00:26:21 10° N
Meteor 2-2 Rocket 4.2 00:23:14 10° S 00:28:47 60° E 00:32:13 23° NNE
SL-19 R/B 4.1 00:24:57 10° SSE 00:30:09 61° ENE 00:35:37 10° N
ATLAS CENTAUR R/B 3.9 00:30:10 10° WNW 00:32:10 16° WSW 00:34:09 10° SSW
Cosmos 1697 Rocket 3.9 00:27:05 10° SW 00:32:16 39° WNW 00:37:31 10° N
SKYMED 2 4.3 00:28:40 10° N 00:32:54 53° WNW 00:37:07 10° SSW
Spot 4 Rocket 3.9 00:28:17 10° SSE 00:33:22 79° ENE 00:38:30 10° N
YAOGAN 1 2.3 00:30:31 10° SSE 00:34:45 81° ENE 00:39:02 10° N
H-II Stage 2 4.4 00:31:32 10° W 00:37:58 20° SW 00:40:49 10° S
IRAS Rocket 4.0 00:36:29 10° SSE 00:41:58 76° ENE 00:47:26 10° NNW
Cosmos 1898 Rocket 3.3 00:37:42 10° SSW 00:42:50 81° ESE 00:44:15 49° NNE
Cosmos 1244 Rocket 4.4 00:37:18 10° N 00:43:33 65° E 00:49:40 10° SSE
DMSP B5D1-3 4.4 00:44:15 61° E 00:44:30 62° E 00:49:29 10° S
Cosmos-2242 3.2 00:45:39 10° SSW 00:49:51 69° W 00:50:38 54° NNW
Cosmos 1953 Rocket 4.4 00:50:27 10° NNW 00:54:45 50° W 00:59:02 10° SSW
Meteor 2-10 4.1 00:49:26 10° N 00:54:51 83° W 01:00:25 10° S
BREEZE-M DEB (TANK) 4.2 00:51:21 10° NW 00:55:49 55° NE 00:58:34 42° E
Helios 1A Rocket 4.1 00:59:45 33° WSW 00:59:45 33° WSW 01:02:02 10° SW
SL-08 R/B 4.3 00:54:58 10° N 01:01:19 75° E 01:07:38 10° SSE
Cosmos 2237 4.5 00:58:43 10° S 01:03:16 53° SSE 01:03:16 53° SSE
Cosmos 1937 Rocket 3.4 00:59:18 10° SSW 01:04:15 82° SSW 01:04:15 82° SSW
Meteor 1-26 Rocket 4.5 00:59:38 10° SSW 01:05:00 62° W 01:07:43 29° N
Aureole 1 Rocket 4.4 01:03:41 10° SW 01:07:33 38° WNW 01:09:04 30° NNW
SL-16 R/B 4.1 01:09:13 10° S 01:10:23 16° S 01:10:23 16° S
Cosmos 967 Rocket 4.3 01:08:13 10° SSW 01:14:33 89° ESE 01:14:48 84° NE
Cosmos 2219 4.3 01:26:14 10° NNW 01:29:28 35° NNW 01:29:28 35° NNW
Cosmos 1980 Rocket 3.9 01:30:21 10° WSW 01:35:07 27° WNW 01:36:57 23° NNW
Cosmos 2263 Rocket 3.6 01:46:54 10° NW 01:51:58 34° WSW 01:52:20 34° WSW
COSMOS 2455 4.3 01:53:12 10° SW 01:56:21 32° SW 01:56:21 32° SW
CZ-3 R/B 4.1 09:25:11 56° SW 09:26:38 56° SSW 09:37:50 10° SE
COSMOS 2406 4.4 10:01:53 38° E 10:01:53 38° E 10:06:49 10° NE
Cosmos 2082 Rocket 4.2 10:10:40 18° NNE 10:10:40 18° NNE 10:11:59 10° NNE
CZ-3 Stage 3 4.0 10:07:38 52° SW 10:09:50 59° S 10:40:40 10° ESE
USA 59 Rocket 2.3 10:11:24 23° E 10:11:24 23° E 10:14:14 10° ESE
Cosmos 1980 Rocket 3.2 10:32:10 35° S 10:32:10 35° S 10:35:20 10° SSE
Cosmos 2180 Rocket 4.4 10:33:48 56° N 10:35:15 85° E 10:41:36 10° S
Cosmos 2369 3.7 10:39:08 69° NNE 10:39:40 75° ENE 10:45:19 10° SSE
FengYun 1-2 T 4.4 10:35:00 10° NNE 10:40:39 72° ESE 10:46:17 10° S
BREEZE-M DEB (TANK) 3.9 10:44:56 61° NW 10:46:03 80° NNE 10:49:52 10° ESE
COSMO-SKYMED 1 4.4 10:50:58 10° SE 10:54:25 26° ENE 10:57:53 10° NNE
Cosmos 2142 Rocket 4.4 10:56:52 58° WNW 10:57:19 60° W 11:03:21 10° S
COSMOS 2455 2.7 10:59:43 51° NW 11:01:21 80° WSW 11:07:21 10° SSE
Cosmos 2360 Rocket 4.3 10:57:28 10° N 11:01:49 22° NE 11:06:10 10° ESE
Cosmos 2333 Rocket 3.7 10:59:10 11° N 11:04:08 34° ENE 11:09:19 10° SE
NOSS 3-1 (C) 4.2 11:01:55 26° NNW 11:06:45 78° NE 11:15:55 10° SE
Cosmos 489 Rocket 4.5 11:06:46 25° SW 11:10:23 55° WNW 11:16:33 10° N
Cosmos 1092 Rocket 4.3 11:05:07 10° S 11:11:20 66° E 11:17:31 10° NNE
Cosmos 1898 Rocket 3.4 11:10:27 50° NW 11:11:39 67° WSW 11:16:51 10° S
Cosmos 1428 Rocket 4.4 11:06:36 10° SSW 11:12:45 70° W 11:19:02 10° N
Nadezhda 4 Rocket 4.0 11:07:32 10° SSW 11:13:43 57° W 11:19:54 10° N
IRS-1D 3.3 11:12:47 10° N 11:17:48 77° WNW 11:22:55 10° SSW
SL-24 R/B 4.2 11:13:44 10° NNE 11:18:56 88° W 11:23:23 10° SSW
Cosmos 2219 Rocket 4.5 11:15:06 10° N 11:19:01 19° NE 11:22:55 10° E
Cosmos 2322 Rocket 3.5 11:20:22 10° N 11:25:41 38° ENE 11:30:55 10° SE
SKYMED 2 3.4 11:21:46 10° S 11:26:06 83° WSW 11:29:04 20° NNW
Helios 1A Rocket 3.2 11:24:29 10° SSE 11:27:42 50° ENE 11:30:06 17° N
Cosmos 2195 Rocket 4.4 11:22:00 10° SSW 11:28:11 67° W 11:34:30 10° N
Cosmos 2058 Rocket 3.6 11:24:39 10° N 11:29:01 58° E 11:33:19 10° SSE
Okean 1 4.2 11:29:02 10° N 11:32:27 42° E 11:35:50 10° SSE
Cosmos 1937 Rocket 3.4 11:29:56 28° NW 11:32:31 59° WSW 11:37:31 10° S
Cosmos 858 Rocket 4.4 11:30:01 18° NNW 11:33:59 83° WSW 11:39:10 10° SSE
Meteor 2-20 4.4 11:28:25 10° N 11:34:33 87° W 11:40:37 10° S
Meteor 2-3 Rocket 3.9 11:34:57 10° SSW 11:40:27 47° WNW 11:45:56 10° N
Cosmos 1606 Rocket 4.3 11:42:54 30° W 11:43:08 30° W 11:46:57 10° SSW
SL-4 R/B 3.8 11:43:26 12° N 11:44:28 14° NNE 11:46:15 10° NE
CZ-4 R/B 4.0 11:41:29 10° N 11:45:51 43° WNW 11:50:12 10° SW
COSMOS 2406 4.0 11:44:06 24° W 11:45:56 29° WNW 11:50:49 10° N
Meteor 1-26 Rocket 4.2 11:41:48 10° N 11:47:24 90° WNW 11:53:09 10° S
Cosmos 405 Rocket 2.6 11:47:48 10° S 11:51:00 66° E 11:54:15 10° NNE
Cosmos 2082 Rocket 3.9 11:52:33 13° NNW 11:52:33 13° NNW 11:54:11 10° NNW
Tiangong -0.6 11:51:40 22° WSW 11:52:37 25° SSW 11:55:19 10° SSE
SL-16 R/B 2.2 11:48:34 12° NNW 11:53:52 70° WSW 11:59:28 10° SSE
Cosmos 1814 Rocket 3.9 11:49:09 10° SSW 11:54:21 77° WNW 11:59:39 10° NNE
